Weather reports worldwide

Advertisment
Idar-Oberstein, Germany (10618): temperature & dewpoint: 16.02.2019 22:00:00 - 22.02.2019 22:00:00 (CET)Idar-Oberstein, Germany (10618): wind speed: 16.02.2019 22:00:00 - 22.02.2019 22:00:00 (CET)Idar-Oberstein, Germany (10618): wind direction: 16.02.2019 22:00:00 - 22.02.2019 22:00:00 (CET)Idar-Oberstein, Germany (10618): reduced air pressure: 16.02.2019 22:00:00 - 22.02.2019 22:00:00 (CET)Idar-Oberstein, Germany (10618): visibility: 16.02.2019 22:00:00 - 22.02.2019 22:00:00 (CET)
Date & Time tt [°C] td [°C] ff [km/h] ff [kn] dd ppp [hPa] vv [km]
22.02.2019 22:00:00 4,9 2,7 7 4 E 1039,0 20
22.02.2019 21:00:00 6,9 3,3 7 4 ENE 1038,2 20
22.02.2019 20:00:00 8,4 3,6 11 6 ENE 1037,5 25
22.02.2019 19:00:00 8,8 3,9 7 4 ENE 1037,1 30
22.02.2019 18:00:00 9,7 3,6 7 4 ENE 1036,5 30
22.02.2019 17:00:00 10,6 4,3 11 6 ENE 1036,2 30
22.02.2019 16:00:00 10,8 4,9 14 8 ENE 1036,1 30
22.02.2019 15:00:00 12,0 5,2 7 4 N 1035,7 30
22.02.2019 14:00:00 10,5 5,3 11 6 ENE 1036,0 30
22.02.2019 13:00:00 10,2 6,1 7 4 NNE 1035,7 20
22.02.2019 12:00:00 9,5 7,0 7 4 NNE 1035,8 20
22.02.2019 11:00:00 8,9 7,3 4 2 NNE 1035,5 9
22.02.2019 10:00:00 8,2 7,6 4 2 ENE 1035,0 1,8
22.02.2019 09:00:00 7,8 6,6 7 4 ENE 1034,6 1,8
22.02.2019 08:00:00 8,2 6,3 0 0 N 1033,9 5
22.02.2019 07:00:00 8,0 6,1 7 4 SW 1033,1 8
22.02.2019 06:00:00 8,2 5,9 4 2 N 1032,8 8
22.02.2019 05:00:00 8,9 5,9 4 2 NNW 1032,3 8
22.02.2019 04:00:00 8,8 5,7 4 2 WSW 1031,9 10
22.02.2019 03:00:00 8,7 5,4 7 4 N 1032,0 12
22.02.2019 02:00:00 8,1 5,2 7 4 WSW 1031,9 12
22.02.2019 01:00:00 8,4 4,8 7 4 SW 1031,8 12
22.02.2019 00:00:00 7,4 4,8 7 4 SSW 1031,8 12
21.02.2019 23:00:00 8,0 4,9 7 4 N 1031,0 12
21.02.2019 22:00:00 8,9 4,9 14 8 SW 1030,6 12
21.02.2019 21:00:00 8,3 4,7 11 6 SW 1030,0 12
21.02.2019 20:00:00 8,3 4,9 7 4 SW 1029,8 15
21.02.2019 19:00:00 8,6 5,5 7 4 SW 1029,6 20
21.02.2019 18:00:00 10,5 4,7 4 2 WSW 1028,7 20
21.02.2019 17:00:00 11,7 3,5 14 8 W 1028,1 20
21.02.2019 16:00:00 12,4 3,3 18 10 WSW 1027,8 20
21.02.2019 15:00:00 11,9 4,9 14 8 WSW 1028,0 20
21.02.2019 14:00:00 11,7 5,0 11 6 SW 1027,8 20
21.02.2019 13:00:00 11,5 4,9 14 8 SSW 1028,1 18
21.02.2019 12:00:00 10,1 5,0 11 6 SSW 1028,6 15
21.02.2019 11:00:00 7,1 4,2 7 4 SW 1029,3 15
21.02.2019 10:00:00 5,0 4,0 7 4 SW 1029,3 12
21.02.2019 09:00:00 1,3 0,8 4 2 WSW 1029,5 15
21.02.2019 08:00:00 0,1 -0,4 7 4 WSW 1029,4 12
21.02.2019 07:00:00 0,2 -0,2 7 4 SW 1029,2 5
21.02.2019 06:00:00 -0,6 -1,1 7 4 SW 1029,2 9
21.02.2019 05:00:00 -0,2 -0,6 7 4 N 1029,0 6
21.02.2019 04:00:00 -0,3 -0,8 7 4 SSW 1029,4 8
21.02.2019 03:00:00 -0,6 -1,2 7 4 SW 1029,0 8
21.02.2019 02:00:00 -0,6 -1,2 7 4 SW 1028,8 10
21.02.2019 01:00:00 -0,1 -0,8 7 4 SW 1028,7 12
21.02.2019 00:00:00 0,1 -0,6 7 4 SW 1028,4 12
20.02.2019 23:00:00 1,2 0,2 7 4 SW 1027,7 20
20.02.2019 22:00:00 3,0 1,5 4 2 S 1027,4 20
20.02.2019 21:00:00 3,2 1,2 4 2 S 1027,3 25
20.02.2019 20:00:00 4,4 1,7 4 2 SSE 1026,9 30
20.02.2019 19:00:00 5,6 1,5 7 4 SSW 1026,1 30
20.02.2019 18:00:00 8,2 1,6 11 6 SSW 1025,1 30
20.02.2019 17:00:00 9,4 1,6 14 8 SW 1024,7 30
20.02.2019 16:00:00 10,1 1,4 14 8 SW 1024,5 30
20.02.2019 15:00:00 10,1 0,9 14 8 SSW 1024,6 30
20.02.2019 14:00:00 10,0 1,7 14 8 SW 1024,7 30
20.02.2019 13:00:00 9,0 3,0 14 8 SW 1025,0 30
20.02.2019 12:00:00 7,8 3,2 11 6 SW 1025,4 30
20.02.2019 11:00:00 1,9 1,6 4 2 N 1026,4 9
20.02.2019 10:00:00 -0,2 -0,5 7 4 W 1026,4 0,1
20.02.2019 09:00:00 -1,8 -2,1 7 4 W 1026,2 0,2
20.02.2019 08:00:00 -2,5 -2,9 7 4 SW 1025,7 0,5
20.02.2019 07:00:00 -2,5 -2,9 7 4 SW 1025,3 1,5
20.02.2019 06:00:00 -1,8 -2,2 7 4 SW 1025,2 6
20.02.2019 05:00:00 -2,4 -2,8 7 4 SSW 1024,9 6
20.02.2019 04:00:00 -1,2 -1,6 4 2 WSW 1024,7 8
20.02.2019 03:00:00 -1,4 -1,9 4 2 SSW 1025,1 10
20.02.2019 02:00:00 0,2 -0,4 7 4 SSW 1024,9 20
20.02.2019 01:00:00 0,9 -0,2 7 4 SSE 1024,5 25
20.02.2019 00:00:00 1,7 0,3 7 4 S 1024,2 25
19.02.2019 23:00:00 1,9 0,4 11 6 SSW 1024,2 25
19.02.2019 22:00:00 2,6 0,9 4 2 N 1023,9 25
19.02.2019 21:00:00 2,9 0,8 11 6 SW 1023,7 30
19.02.2019 20:00:00 3,0 0,6 11 6 SW 1023,3 30
19.02.2019 19:00:00 4,5 1,0 11 6 SW 1022,6 30
19.02.2019 18:00:00 6,7 0,7 14 8 SW 1021,8 40
19.02.2019 17:00:00 8,0 1,3 14 8 SW 1021,6 40
19.02.2019 16:00:00 8,4 1,7 18 10 SW 1021,4 40
19.02.2019 15:00:00 7,9 2,1 14 8 SW 1021,5 30
19.02.2019 14:00:00 8,3 3,0 14 8 SW 1021,3 30
19.02.2019 13:00:00 6,9 4,0 14 8 SW 1022,0 30
19.02.2019 12:00:00 6,1 4,0 14 8 SSW 1022,5 20
19.02.2019 11:00:00 4,6 3,5 7 4 WSW 1022,2 15
19.02.2019 10:00:00 4,0 2,9 4 2 N 1021,7 15
19.02.2019 09:00:00 3,8 1,9 7 4 SSW 1021,4 18
19.02.2019 08:00:00 4,4 0,4 14 8 SSW 1020,3 30
19.02.2019 07:00:00 3,9 0,0 11 6 SW 1019,7 30
19.02.2019 06:00:00 4,2 -0,1 7 4 SW 1019,5 30
19.02.2019 05:00:00 4,1 0,0 7 4 SW 1019,3 30
19.02.2019 04:00:00 4,0 -0,1 7 4 SW 1019,2 40
19.02.2019 03:00:00 5,9 0,3 14 8 SSW 1019,1 40
19.02.2019 02:00:00 5,7 0,4 14 8 SSW 1019,2 40
19.02.2019 01:00:00 5,8 0,1 14 8 SSW 1019,2 40
19.02.2019 00:00:00 5,0 0,0 11 6 SSW 1019,3 40
18.02.2019 23:00:00 4,9 -0,3 7 4 SSW 1019,3 40
18.02.2019 22:00:00 5,9 -0,6 7 4 SW 1019,3 40
18.02.2019 21:00:00 7,0 -1,0 7 4 SSW 1019,0 40
18.02.2019 20:00:00 8,4 -2,0 7 4 S 1018,5 40
18.02.2019 19:00:00 10,1 -2,7 7 4 S 1018,3 40
18.02.2019 18:00:00 11,3 -2,5 7 4 SW 1017,8 40
18.02.2019 17:00:00 12,8 -1,9 14 8 SW 1017,6 40
18.02.2019 16:00:00 13,6 -2,1 18 10 SSW 1017,5 40
18.02.2019 15:00:00 13,7 -2,3 14 8 SSW 1017,9 40
18.02.2019 14:00:00 13,4 -2,5 22 12 SSW 1018,4 40
18.02.2019 13:00:00 11,8 -1,4 18 10 SW 1019,7 40
18.02.2019 12:00:00 10,7 -0,3 18 10 SSW 1020,7 40
18.02.2019 11:00:00 7,9 0,2 18 10 SSW 1021,7 35
18.02.2019 10:00:00 3,5 -0,6 4 2 WSW 1022,5 35
18.02.2019 09:00:00 -1,5 -2,6 7 4 SW 1023,6 30
18.02.2019 08:00:00 -3,1 -4,0 7 4 SW 1023,9 25
18.02.2019 07:00:00 -2,9 -3,9 7 4 SW 1023,9 25
18.02.2019 06:00:00 -2,3 -3,2 7 4 WSW 1024,0 20
18.02.2019 05:00:00 -2,6 -3,6 7 4 WSW 1023,9 20
18.02.2019 04:00:00 -2,1 -3,5 7 4 N 1023,9 20
18.02.2019 03:00:00 -1,9 -3,3 7 4 W 1024,4 20
18.02.2019 02:00:00 -0,7 -2,7 7 4 SW 1024,2 30
18.02.2019 01:00:00 -0,5 -2,5 7 4 SW 1024,5 30
18.02.2019 00:00:00 0,9 -2,1 7 4 SW 1024,1 30
17.02.2019 23:00:00 1,7 -1,9 7 4 SW 1024,1 30
17.02.2019 22:00:00 2,4 -1,9 7 4 SW 1024,2 30
17.02.2019 21:00:00 4,4 -1,7 4 2 N 1023,7 30
17.02.2019 20:00:00 6,4 -1,5 4 2 N 1023,3 30
17.02.2019 19:00:00 8,3 -1,4 7 4 S 1022,6 30
17.02.2019 18:00:00 11,7 -1,7 4 2 S 1021,8 40
17.02.2019 17:00:00 14,7 -2,5 11 6 SW 1021,5 40
17.02.2019 16:00:00 14,9 -2,2 11 6 WSW 1021,9 40
17.02.2019 15:00:00 14,7 -2,6 14 8 SW 1022,2 40
17.02.2019 14:00:00 14,2 -1,5 11 6 SW 1022,8 30
17.02.2019 13:00:00 12,7 -1,0 14 8 SW 1023,5 30
17.02.2019 12:00:00 10,3 0,0 11 6 WSW 1024,6 30
17.02.2019 11:00:00 5,7 0,0 7 4 W 1025,4 30
17.02.2019 10:00:00 0,5 -1,1 7 4 SW 1026,5 30
17.02.2019 09:00:00 -1,0 -1,7 4 2 WSW 1027,2 20
17.02.2019 08:00:00 -2,6 -3,1 7 4 SW 1027,4 20
17.02.2019 07:00:00 -2,4 -3,0 4 2 SW 1027,4 10
17.02.2019 06:00:00 -2,3 -2,9 7 4 SW 1027,6 8
17.02.2019 05:00:00 -1,7 -2,4 4 2 WSW 1027,6 10
17.02.2019 04:00:00 -1,5 -2,3 4 2 N 1027,7 10
17.02.2019 03:00:00 -1,3 -2,1 7 4 SW 1027,9 12
17.02.2019 02:00:00 -0,7 -1,5 4 2 WSW 1028,0 15
17.02.2019 01:00:00 -0,2 -1,4 7 4 SW 1028,1 15
17.02.2019 00:00:00 0,6 -1,0 7 4 SSW 1028,4 15
16.02.2019 23:00:00 1,9 -0,3 4 2 W 1028,3 15
16.02.2019 22:00:00 3,2 -0,1 4 2 S 1028,1 18

tt = temperature
td = dewpoint
ff = wind speed
dd = wind direction
ppp = reduced air pressure
vv = visibility

Next stations